Location: Unspecified
(42.3650°N, 71.1030°W)
Time: 16:07:35
(UTC+00:00)

IRIDIUM 114 - Pass Details

Date: 02 March 2024
Orbit: 776 x 779 km, 86.4° (Epoch: 18 April)

Event Time Altitude Azimuth Distance (km) Brightness Sun altitude
Rises 23:21:35 0° 184° (S) 3,247 7.6 -9.2°
Reaches altitude 10° 23:23:55 10° 185° (S) 2,324 6.9 -9.6°
Maximum altitude 23:29:08 81° 273° (W) 793 4.5 -10.6°
Drops below altitude 10° 23:34:23 10° 1° (N) 2,341 6.8 -11.5°
Sets 23:36:45 0° 2° (N) 3,273 7.6 -12.0°
